[Iaude] MPEC N34: 2024 NH [a=1.04,e=0.16,i=4.6,H=25.3]
    mpec at cfa.harvard.edu 
    mpec at cfa.harvard.edu
       
    Thu Jul  4 10:18:36 EDT 2024
    
    
  
M.P.E.C. 2024-N34                                  Issued 2024 July 4, 14:17 UT
     The Minor Planet Electronic Circulars contain information on unusual
         minor planets, routine data on comets and natural satellites,
         and occasional editorial announcements.  They are published
    on behalf of Division F of the International Astronomical Union by the
          Minor Planet Center, Smithsonian Astrophysical Observatory,
                          Cambridge, MA 02138, U.S.A.
			  
             Prepared using the Tamkin Foundation Computer Network
                              MPC at CFA.HARVARD.EDU
            URL https://www.minorplanetcenter.net/    ISSN 1523-6714
                                    2024 NH                                     
Observations:
     K24N00H  C2024 06 28.49293520 53 40.620-14 59 10.84         21.32GVEN034F51
     K24N00H  C2024 06 28.50464820 53 42.263-14 59 34.68         22.17GVEN034F51
     K24N00H  C2024 06 28.51636220 53 43.905-14 59 58.67         21.14GVEN034F51
     K24N00H* C2024 07 02.55263921 07 23.878-17 41 13.16         21.54wXEN034F51
     K24N00H  C2024 07 02.56240021 07 25.663-17 41 40.34         21.09wXEN034F51
     K24N00H  C2024 07 02.57215421 07 27.461-17 42 07.41         20.73wXEN034F51
     K24N00H KC2024 07 02.66986621 07 50.402-17 44 41.17         20.8 GVEN034474
     K24N00H KC2024 07 02.67478221 07 51.374-17 44 55.14         20.3 GVEN034474
     K24N00H KC2024 07 02.67969921 07 52.375-17 45 08.64         20.9 GVEN034474
     K24N00H |C2024 07 03.30770021 10 23.470-18 16 18.30         21.1 GVEN034807
     K24N00H |C2024 07 03.31335021 10 24.640-18 16 35.50         21.3 GVEN034807
     K24N00H |C2024 07 03.31870021 10 25.690-18 16 50.60         21.3 GVEN034807
     K24N00H 3C2024 07 03.60238921 11 33.218-18 32 52.57         20.83GVEN034T14
     K24N00H 3C2024 07 03.60336421 11 33.414-18 32 55.48         20.90GVEN034T14
     K24N00H 3C2024 07 03.60434121 11 33.612-18 32 58.37         21.08GVEN034T14
     K24N00H KC2024 07 03.61280421 11 39.804-18 31 21.18         20.9 GVEN034474
     K24N00H KC2024 07 03.61772021 11 40.843-18 31 35.80         20.4 GVEN034474
     K24N00H KC2024 07 03.62263721 11 41.870-18 31 52.07         21.0 GVEN034474
     K24N00H KC2024 07 03.62755321 11 42.905-18 32 06.18         20.8 GVEN034474
Observer details:
474 Mount John Observatory, Lake Tekapo.  Observers A. C. Gilmore, P. M.
    Kilmartin.  Measurer P. M. Kilmartin.  0.6-m f/6.3 Reflector + CCD.
807 Cerro Tololo Observatory, La Serena.  Observers T. Linder, R. Holmes.
    0.61-m f/6.8 Ritchey-Chretien + CCD.
F51 Pan-STARRS 1, Haleakala.  Observers J. Herman, T. Lowe, P. Minguez, A.
    Schultz, I. Smith.  Measurers K. Chambers, T. de Boer, J. Fairlamb, H.
    Gao, M. Huber, C.-C. Lin, E. Magnier, Y. Ramanjooloo, R. Wainscoat, R.
    Weryk.  1.8-m Ritchey-Chretien + CCD.
T14 Canada-France-Hawaii Telescope, Maunakea.  Observers R. Wainscoat, H.
    Januszewski, V. Khatu.  Measurers R. Weryk, R. Wainscoat.  3.6-m f/4.1
    reflector + CCD.
Orbital elements:
2024 NH                                                  Earth MOID = 0.0115 AU
Epoch 2024 Mar. 31.0 TT = JDT 2460400.5                 MPC                     
M 179.28003              (2000.0)            P               Q                  
n   0.92437265     Peri.  292.61637     +0.81926637     -0.56806240             
a   1.0436895      Node   102.08264     +0.55107019     +0.74232204             
e   0.1573510      Incl.    4.58411     +0.15850632     +0.35533518             
P   1.07           H   25.37          G   0.15           U   6                  
Residuals in seconds of arc
240628 F51  0.1+  0.1-    240702 474  0.3+  0.2+    240703 T14  0.0   0.0
240628 F51  0.1-  0.0     240702 474  0.7+  0.5+    240703 474  0.1-  0.3-
240628 F51  0.1-  0.1-    240703 807  0.6-  0.2-    240703 474  0.0   0.3+
240702 F51  0.0   0.1-    240703 807  0.2+  0.5-    240703 474  0.2-  0.7-
240702 F51  0.1-  0.0     240703 807  0.0   0.4+    240703 474  0.2-  0.4+
240702 F51  0.1-  0.2+    240703 T14  0.1+  0.0
240702 474  0.2+  0.4+    240703 T14  0.0   0.0
Ephemeris:
2024 NH                  a,e,i = 1.04, 0.16, 5                   q = 0.8795
Date    TT    R. A. (2000) Decl.     Delta      r    Elong.  Phase     V
2024 06 04    20 02 55.6 -09 25 32   0.1827  1.1443   131.7    41.4    23.6
...
2024 06 19    20 30 21.1 -11 19 01   0.1225  1.1129   140.2    35.8    22.5
...
2024 06 27    20 49 20.0 -14 11 15   0.09381 1.0943   144.5    32.6    21.8
...
2024 07 03    21 09 09.6 -18 01 26   0.07414 1.0795   146.9    31.0    21.2
2024 07 04    21 13 17.1 -18 52 26   0.07104 1.0770   147.1    30.9    21.1
2024 07 05    21 17 44.3 -19 47 58   0.06801 1.0745   147.2    30.9    21.0
...
2024 07 11    21 54 56.4 -27 19 59   0.05138 1.0591   144.9    33.5    20.4
...
2024 07 19    23 51 03.6 -43 06 31   0.03609 1.0380   126.3    52.1    20.2
...
2024 08 03    05 46 45.0 -33 28 36   0.04741 0.9977    67.6   109.9    22.9
A. U. Tomatic                (C) Copyright 2024 MPC           M.P.E.C. 2024-N34
    
    
More information about the Iaude
mailing list